Location: Proctor
(47.8934°N, 114.3048°W)
Time: 20:40:49
(UTC+00:00)

STARS - Visible Passes

Search period start: 27 June 2022 00:00
Search period end: 07 July 2022 00:00
Orbit: 622 x 636 km, 98.2° (Epoch: 27 June)

Date Brightness Start Highest point End Pass type
(mag) Time Alt. Az. Time Alt. Az. Time Alt. Az.
27 Jun ? 05:05:31 10° ENE 05:07:41 13° E 05:09:23 11° ESE visible
27 Jun ? 06:40:04 10° N 06:44:28 72° WNW 06:46:45 27° SSW visible
27 Jun ? 08:19:28 10° NW 08:19:55 10° NW 08:20:21 10° WNW visible
28 Jun ? 05:24:41 10° NE 05:28:01 21° E 05:29:43 17° ESE visible
28 Jun ? 07:00:18 10° N 07:04:30 45° WNW 07:07:03 21° SW visible
29 Jun ? 05:44:19 10° NNE 05:48:16 32° E 05:50:00 23° SE visible
29 Jun ? 07:20:39 10° N 07:24:29 30° WNW 07:27:22 15° WSW visible
30 Jun ? 06:04:11 10° NNE 06:08:28 50° E 06:10:19 30° SSE visible
30 Jun ? 07:41:11 10° NNW 07:44:24 20° WNW 07:47:37 10° WSW visible
01 Jul ? 06:24:11 10° NNE 06:28:36 80° ESE 06:30:37 32° S visible
01 Jul ? 08:01:59 10° NNW 08:04:16 14° WNW 08:06:32 10° W visible
02 Jul ? 05:09:31 10° NE 05:11:57 14° E 05:13:34 12° ESE visible
02 Jul ? 06:44:19 10° N 06:48:40 66° WNW 06:50:55 28° SSW visible
03 Jul ? 05:28:48 10° NE 05:32:15 22° E 05:33:51 18° ESE visible
03 Jul ? 07:04:33 10° N 07:08:41 42° WNW 07:11:12 21° SW visible
04 Jul ? 05:48:28 10° NNE 05:52:30 34° E 05:54:08 25° SE visible
04 Jul ? 07:24:55 10° N 07:28:39 28° WNW 07:31:30 15° WSW visible
05 Jul ? 06:08:21 10° NNE 06:12:40 54° E 06:14:26 32° SSE visible
05 Jul ? 07:45:28 10° NNW 07:48:33 19° WNW 07:51:37 10° WSW visible
06 Jul ? 06:28:22 10° NNE 06:32:47 86° ESE 06:34:42 33° SSW visible
06 Jul ? 08:06:23 10° NNW 08:08:24 13° WNW 08:10:24 10° W visible
